| time (UTC) | temp F | wind direction | speed knots | gust knots | rain 1hr in | rain 24hr in | rain mn in | humidity % | barometer mb |
| 20260904093056 | 61 | 96 | 3.5 | 10.4 | 0.00 | 0.00 | 0.00 | 51 | 1011.9 |
| 20260904091606 | 61 | 171 | 3.5 | 11.3 | 0.00 | 0.00 | 0.00 | 51 | 1012.0 |
| 20260904090051 | 61 | 125 | 3.5 | 9.6 | 0.00 | 0.00 | 0.00 | 51 | 1012.1 |
| 20260904084546 | 60 | 153 | 3.5 | 11.3 | 0.00 | 0.00 | 0.00 | 51 | 1012.2 |
| 20260904083107 | 60 | 146 | 3.5 | 12.2 | 0.00 | 0.00 | 0.00 | 51 | 1012.3 |
| 20260904081550 | 60 | 167 | 4.3 | 10.4 | 0.00 | 0.00 | 0.00 | 52 | 1012.3 |
| 20260904080045 | 60 | 130 | 0.9 | 7.8 | 0.00 | 0.00 | 0.00 | 51 | 1012.4 |
| 20260904074606 | 60 | 180 | 2.6 | 7.8 | 0.00 | 0.00 | 0.00 | 51 | 1012.5 |
| 20260904073053 | 60 | 101 | 2.6 | 8.7 | 0.00 | 0.00 | 0.00 | 51 | 1012.5 |
| 20260904071547 | 60 | 177 | 3.5 | 9.6 | 0.00 | 0.00 | 0.00 | 50 | 1012.4 |
| 20260904070056 | 60 | 109 | 3.5 | 14.8 | 0.00 | 0.00 | 0.00 | 49 | 1012.3 |
| 20260904064553 | 60 | 134 | 2.6 | 10.4 | 0.00 | 0.00 | 0.00 | 49 | 1012.4 |
| 20260904063053 | 60 | 156 | 3.5 | 12.2 | 0.00 | 0.00 | 0.00 | 49 | 1012.2 |
| 20260904061546 | 60 | 178 | 5.2 | 13.9 | 0.00 | 0.00 | 0.00 | 48 | 1012.2 |
| 20260904060045 | 60 | 158 | 4.3 | 12.2 | 0.00 | 0.00 | 0.00 | 48 | 1012.3 |
| 20260904054558 | 60 | 103 | 5.2 | 12.2 | 0.00 | 0.00 | 0.00 | 48 | 1012.4 |
| 20260904053047 | 60 | 163 | 3.5 | 9.6 | 0.00 | 0.00 | 0.00 | 48 | 1012.5 |
| 20260904051548 | 61 | 173 | 4.3 | 14.8 | 0.00 | 0.00 | 0.00 | 47 | 1012.8 |
| 20260904044605 | 61 | 156 | 4.3 | 16.5 | 0.00 | 0.00 | 0.00 | 47 | 1012.9 |
| 20260904043055 | 61 | 157 | 3.5 | 13.9 | 0.00 | 0.00 | 0.00 | 46 | 1012.6 |
| 20260904041551 | 61 | 160 | 4.3 | 12.2 | 0.00 | 0.00 | 0.00 | 46 | 1012.7 |
| 20260904040103 | 61 | 185 | 4.3 | 14.8 | 0.00 | 0.00 | 0.00 | 46 | 1012.5 |
| 20260904034607 | 61 | 116 | 4.3 | 14.8 | 0.00 | 0.00 | 0.00 | 46 | 1012.3 |
| 20260904033056 | 62 | 175 | 5.2 | 16.5 | 0.00 | 0.00 | 0.00 | 46 | 1012.4 |
| 20260904031551 | 62 | 167 | 3.5 | 15.6 | 0.00 | 0.00 | 0.00 | 46 | 1012.2 |
| 20260904030046 | 62 | 123 | 3.5 | 22.6 | 0.00 | 0.00 | 0.00 | 46 | 1012.2 |
| 20260904024547 | 62 | 163 | 5.2 | 16.5 | 0.00 | 0.00 | 0.00 | 46 | 1012.2 |
| 20260904023055 | 63 | 107 | 2.6 | 13.0 | 0.00 | 0.00 | 0.00 | 45 | 1012.0 |
| 20260904021559 | 63 | 169 | 5.2 | 13.0 | 0.00 | 0.00 | 0.00 | 45 | 1012.0 |
| 20260904020057 | 63 | 173 | 5.2 | 15.6 | 0.00 | 0.00 | 0.00 | 45 | 1012.2 |
| 20260904014640 | 64 | 166 | 6.1 | 15.6 | 0.00 | 0.00 | 0.00 | 43 | 1012.2 |
| 20260904013056 | 64 | 182 | 6.1 | 14.8 | 0.00 | 0.00 | 0.00 | 43 | 1012.2 |
| 20260904011556 | 64 | 175 | 6.1 | 14.8 | 0.00 | 0.00 | 0.00 | 43 | 1012.3 |
| 20260904010107 | 65 | 161 | 5.2 | 21.7 | 0.00 | 0.00 | 0.00 | 42 | 1012.3 |
| 20260904004555 | 65 | 180 | 7.0 | 14.8 | 0.00 | 0.00 | 0.00 | 42 | 1012.5 |
| 20260904003057 | 66 | 184 | 6.1 | 17.4 | 0.00 | 0.00 | 0.00 | 42 | 1012.5 |
| 20260904001548 | 66 | 190 | 7.8 | 20.0 | 0.00 | 0.00 | 0.00 | 43 | 1012.5 |
| 20260903234550 | 66 | 155 | 7.8 | 20.9 | 0.00 | 0.00 | 0.00 | 43 | 1012.9 |
| 20260903233103 | 66 | 161 | 7.0 | 15.6 | 0.00 | 0.00 | 0.00 | 43 | 1013.1 |
| 20260903231546 | 66 | 187 | 8.7 | 20.0 | 0.00 | 0.00 | 0.00 | 43 | 1013.4 |
| 20260903230057 | 66 | 229 | 8.7 | 20.9 | 0.00 | 0.00 | 0.00 | 42 | 1013.4 |
| 20260903224552 | 67 | 192 | 9.6 | 16.5 | 0.00 | 0.00 | 0.00 | 41 | 1013.4 |
| 20260903223055 | 68 | 132 | 9.6 | 22.6 | 0.00 | 0.00 | 0.00 | 40 | 1013.4 |
| 20260903221558 | 69 | 201 | 11.3 | 20.9 | 0.00 | 0.00 | 0.00 | 38 | 1013.5 |
| 20260903220116 | 69 | 165 | 9.6 | 21.7 | 0.00 | 0.00 | 0.00 | 38 | 1013.5 |
| 20260903214545 | 69 | 149 | 11.3 | 20.9 | 0.00 | 0.00 | 0.00 | 37 | 1013.4 |
| 20260903213044 | 68 | 207 | 9.6 | 20.0 | 0.00 | 0.00 | 0.00 | 39 | 1013.4 |
| 20260903211558 | 69 | 157 | 9.6 | 18.2 | 0.00 | 0.00 | 0.00 | 37 | 1013.3 |
| 20260903210058 | 71 | 242 | 8.7 | 16.5 | 0.00 | 0.00 | 0.00 | 36 | 1013.4 |
| 20260903204556 | 70 | 227 | 8.7 | 18.2 | 0.00 | 0.00 | 0.00 | 36 | 1013.4 |
| 20260903203107 | 71 | 209 | 5.2 | 15.6 | 0.00 | 0.00 | 0.00 | 35 | 1013.6 |
| 20260903201557 | 72 | 174 | 4.3 | 14.8 | 0.00 | 0.00 | 0.00 | 34 | 1013.6 |
| 20260903200054 | 72 | 150 | 7.0 | 16.5 | 0.00 | 0.00 | 0.00 | 32 | 1013.7 |
| 20260903194556 | 71 | 211 | 6.1 | 15.6 | 0.00 | 0.00 | 0.00 | 33 | 1013.7 |
| 20260903193049 | 72 | 170 | 4.3 | 13.0 | 0.00 | 0.00 | 0.00 | 33 | 1013.8 |
| 20260903191557 | 71 | 190 | 6.1 | 14.8 | 0.00 | 0.00 | 0.00 | 33 | 1013.8 |
| 20260903190051 | 71 | 232 | 4.3 | 13.9 | 0.00 | 0.00 | 0.00 | 32 | 1014.2 |
| 20260903184546 | 69 | 144 | 2.6 | 10.4 | 0.00 | 0.00 | 0.00 | 33 | 1014.2 |
| 20260903183057 | 69 | 241 | 3.5 | 12.2 | 0.00 | 0.00 | 0.00 | 34 | 1014.5 |
| 20260903181549 | 69 | 163 | 4.3 | 9.6 | 0.00 | 0.00 | 0.00 | 32 | 1014.7 |
| 20260903180049 | 69 | 169 | 5.2 | 12.2 | 0.00 | 0.00 | 0.00 | 32 | 1014.6 |
| 20260903174547 | 68 | 242 | 0.9 | 4.3 | 0.00 | 0.00 | 0.00 | 33 | 1014.7 |
| 20260903173059 | 67 | 0 | 0.9 | 6.1 | 0.00 | 0.00 | 0.00 | 32 | 1014.8 |
| 20260903171553 | 67 | 350 | 0.0 | 3.5 | 0.00 | 0.00 | 0.00 | 33 | 1015.0 |
| 20260903170049 | 67 | 270 | 2.6 | 7.0 | 0.00 | 0.00 | 0.00 | 31 | 1015.2 |
| 20260903164556 | 67 | 57 | 0.9 | 2.6 | 0.00 | 0.00 | 0.00 | 32 | 1015.3 |
| 20260903163047 | 66 | 0 | 0.0 | 2.6 | 0.00 | 0.00 | 0.00 | 30 | 1015.5 |
| 20260903161546 | 65 | 0 | 0.9 | 3.5 | 0.00 | 0.00 | 0.00 | 30 | 1015.7 |
| 20260903160046 | 63 | 0 | 0.0 | 2.6 | 0.00 | 0.00 | 0.00 | 38 | 1015.7 |
| 20260903154554 | 59 | 0 | 0.0 | 1.7 | 0.00 | 0.00 | 0.00 | 46 | 1015.8 |
| 20260903153051 | 54 | 0 | 0.0 | 0.0 | 0.00 | 0.00 | 0.00 | 55 | 1016.1 |
| 20260903151551 | 52 | 0 | 0.0 | 0.0 | 0.00 | 0.00 | 0.00 | 61 | 1016.3 |
| 20260903150106 | 53 | 0 | 0.0 | 1.7 | 0.00 | 0.00 | 0.00 | 62 | 1016.4 |
| 20260903144547 | 53 | 0 | 0.0 | 1.7 | 0.00 | 0.00 | 0.00 | 55 | 1016.1 |
| 20260903143057 | 51 | 0 | 0.0 | 0.0 | 0.00 | 0.00 | 0.00 | 61 | 1015.9 |
| 20260903141549 | 50 | 0 | 0.0 | 0.9 | 0.00 | 0.00 | 0.00 | 62 | 1015.9 |
| 20260903140047 | 48 | 102 | 0.9 | 2.6 | 0.00 | 0.00 | 0.00 | 63 | 1015.8 |
| 20260903134624 | 46 | 0 | 0.0 | 0.9 | 0.00 | 0.00 | 0.00 | 64 | 1015.8 |
| 20260903133101 | 47 | 0 | 0.0 | 0.0 | 0.00 | 0.00 | 0.00 | 63 | 1015.9 |
| 20260903131549 | 48 | 0 | 0.0 | 0.0 | 0.00 | 0.00 | 0.00 | 61 | 1015.9 |
| 20260903130103 | 46 | 0 | 0.0 | 0.0 | 0.00 | 0.00 | 0.00 | 61 | 1015.9 |
| 20260903124557 | 47 | 0 | 0.0 | 3.5 | 0.00 | 0.00 | 0.00 | 60 | 1016.1 |
| 20260903123051 | 49 | 0 | 0.0 | 0.0 | 0.00 | 0.00 | 0.00 | 55 | 1016.2 |
| 20260903121557 | 49 | 0 | 0.0 | 0.0 | 0.00 | 0.00 | 0.00 | 54 | 1016.4 |
| 20260903120059 | 50 | 0 | 0.0 | 0.0 | 0.00 | 0.00 | 0.00 | 52 | 1016.6 |
| 20260903114555 | 50 | 0 | 0.0 | 0.0 | 0.00 | 0.00 | 0.00 | 53 | 1016.6 |
| 20260903113058 | 50 | 0 | 0.0 | 0.0 | 0.00 | 0.00 | 0.00 | 55 | 1016.7 |
| 20260903111556 | 50 | 0 | 0.0 | 0.0 | 0.00 | 0.00 | 0.00 | 54 | 1016.8 |
| 20260903110104 | 50 | 0 | 0.0 | 2.6 | 0.00 | 0.00 | 0.00 | 54 | 1017.0 |
| 20260903104549 | 51 | 0 | 0.0 | 0.0 | 0.00 | 0.00 | 0.00 | 54 | 1017.1 |
| 20260903103058 | 50 | 0 | 0.0 | 0.9 | 0.00 | 0.00 | 0.00 | 55 | 1017.1 |
| 20260903101558 | 50 | 0 | 0.0 | 0.0 | 0.00 | 0.00 | 0.00 | 58 | 1016.9 |
| 20260903100049 | 50 | 0 | 0.0 | 0.9 | 0.00 | 0.00 | 0.00 | 56 | 1016.9 |
| 20260903094557 | 50 | 0 | 0.0 | 0.9 | 0.00 | 0.00 | 0.00 | 59 | 1017.1 |